Weather History for KNEW - February, 2013

Change the Weather History Date:

Friday, February 8, 2013

  Actual Average Record
Temperature  
Mean Temperature 61 °F 55 °F  
Max Temperature 69 °F 64 °F 81 °F (1999)
Min Temperature 53 °F 47 °F 30 °F (1975)
Degree Days  
Heating Degree Days 4 10  
Month to date heating degree days 49 86  
Since 1 July heating degree days 734 942  
Cooling Degree Days 0 1  
Month to date cooling degree days 0 8  
Year to date cooling degree days 25 24  
Growing Degree Days 13 (Base 50)    
Moisture  
Dew Point 57 °F    
Average Humidity 84    
Maximum Humidity 100    
Minimum Humidity 68    
Precipitation  
Precipitation 0.00 in 0.20 in 1.61 in (1990)
Month to date precipitation 2.76 1.56  
Year to date precipitation 9.35 6.71  
Snow  
Snow 0.00 in - - ()
Month to date snowfall 0.0  
Since 1 July snowfall 0.0  
Snow Depth 0.00 in    
Sea Level Pressure  
Sea Level Pressure 30.06 in    
Wind  
Wind Speed 6 mph (WNW)    
Max Wind Speed 17 mph    
Max Gust Speed 23 mph    
Visibility 4 miles    
Events      
T = Trace of Precipitation, MM = Missing Value Source: NWS Daily Summary

Daily Weather History Graph

Daily Weather History Graph

Search for Another Location

Airport or City:

Trip Planner

Search our weather history database for the weather conditions in past years. The results will help you decide how hot, cold, wet, or windy it might be!

Date:

Astronomy

Feb. 08, 2013 Rise Set
Actual Time 6:45 AM CST 5:43 PM CST
Civil Twilight 6:20 AM CST 6:08 PM CST
Nautical Twilight 5:52 AM CST 6:36 PM CST
Astronomical Twilight 5:24 AM CST 7:04 PM CST
Moon 5:10 AM CST (2/8) 4:18 PM CST (2/8)
Length of Visible Light 11h 47m
Length of Day
10h 57m
Waning Crescent, 3% of the Moon is Illuminated
Feb 8
Waning Crescent
Feb 10
New
Feb 17
First Quarter
Feb 25
Full
Mar 4
Last Quarter

Hourly Weather History & Observations

Time (CST) Temp. Dew Point Humidity Pressure Visibility Wind Dir Wind Speed Gust Speed Precip Events Conditions
12:53 AM 62.1 °F 57.0 °F 84% 29.96 in 3.0 mi SW 3.5 mph - N/A   Haze
1:53 AM 62.1 °F 55.9 °F 80% 29.96 in 4.0 mi Calm Calm - N/A   Haze
2:53 AM 62.1 °F 55.9 °F 80% 29.97 in 3.0 mi NW 3.5 mph - N/A   Haze
3:22 AM 62.6 °F 57.2 °F 82% 29.99 in 2.5 mi Calm Calm - N/A   Haze
3:53 AM 62.1 °F 57.0 °F 84% 29.98 in 1.8 mi NW 5.8 mph - N/A   Haze
4:09 AM 62.6 °F 57.2 °F 82% 30.00 in 2.0 mi WNW 4.6 mph - N/A   Haze
4:18 AM 62.6 °F 57.2 °F 82% 30.01 in 1.8 mi WNW 5.8 mph - N/A   Haze
4:41 AM 62.6 °F 57.2 °F 82% 30.00 in 2.0 mi West 4.6 mph - N/A   Haze
4:53 AM 62.1 °F 57.0 °F 84% 29.99 in 2.0 mi West 3.5 mph - N/A   Haze
5:04 AM 62.6 °F 57.2 °F 82% 30.00 in 2.5 mi Calm Calm - N/A   Haze
5:53 AM 61.0 °F 55.9 °F 83% 29.99 in 2.5 mi SSW 3.5 mph - 0.01 in   Haze
6:53 AM 61.0 °F 55.9 °F 83% 30.01 in 2.0 mi Calm Calm - N/A   Haze
7:00 AM 60.8 °F 55.4 °F 82% 30.03 in 1.5 mi Calm Calm - N/A   Haze
7:26 AM 60.8 °F 55.4 °F 82% 30.04 in 2.5 mi Calm Calm - N/A   Haze
7:45 AM 62.6 °F 57.2 °F 82% 30.05 in 3.0 mi Calm Calm - N/A   Haze
7:53 AM 63.0 °F 57.0 °F 81% 30.04 in 3.0 mi Calm Calm - N/A   Haze
8:38 AM 62.6 °F 57.2 °F 82% 30.07 in 2.5 mi West 3.5 mph - N/A   Haze
8:51 AM 64.4 °F 57.2 °F 77% 30.08 in 3.0 mi West 3.5 mph - N/A   Haze
8:53 AM 64.0 °F 57.9 °F 80% 30.06 in 3.0 mi West 3.5 mph - N/A   Haze
9:53 AM 64.9 °F 57.9 °F 78% 30.08 in 4.0 mi West 5.8 mph - N/A   Haze
10:53 AM 64.9 °F 59.0 °F 81% 30.09 in 3.0 mi WNW 5.8 mph - N/A   Haze
11:05 AM 64.4 °F 59.0 °F 83% 30.11 in 2.5 mi WNW 5.8 mph - N/A   Haze
11:34 AM 64.4 °F 59.0 °F 83% 30.11 in 3.0 mi West 8.1 mph - N/A   Haze
11:53 AM 64.9 °F 57.9 °F 78% 30.09 in 3.0 mi WNW 10.4 mph - N/A   Haze
11:57 AM 64.4 °F 59.0 °F 83% 30.11 in 2.5 mi WNW 10.4 mph - N/A   Haze
12:05 PM 64.4 °F 59.0 °F 83% 30.11 in 3.0 mi WNW 11.5 mph - N/A   Haze
12:20 PM 64.4 °F 59.0 °F 83% 30.10 in 3.0 mi WNW 11.5 mph - N/A   Haze
12:53 PM 64.9 °F 57.9 °F 78% 30.08 in 3.0 mi WNW 10.4 mph - N/A   Haze
1:31 PM 64.4 °F 57.2 °F 77% 30.09 in 5.0 mi WNW 10.4 mph - N/A   Haze
1:44 PM 64.4 °F 57.2 °F 77% 30.08 in 5.0 mi West 9.2 mph - N/A   Haze
1:53 PM 66.0 °F 59.0 °F 78% 30.06 in 5.0 mi West 9.2 mph - N/A   Haze
2:53 PM 64.9 °F 59.0 °F 81% 30.06 in 5.0 mi West 6.9 mph - N/A   Haze
3:53 PM 66.0 °F 59.0 °F 78% 30.05 in 5.0 mi West 6.9 mph - N/A   Haze
4:53 PM 66.0 °F 57.9 °F 75% 30.05 in 6.0 mi West 8.1 mph - N/A   Haze
5:53 PM 64.9 °F 57.9 °F 78% 30.06 in 6.0 mi WNW 9.2 mph - N/A   Haze
6:53 PM 66.0 °F 57.0 °F 73% 30.09 in 10.0 mi North 15.0 mph - N/A   Mostly Cloudy
7:53 PM 64.0 °F 54.0 °F 70% 30.12 in 10.0 mi North 19.6 mph - N/A   Overcast
8:53 PM 62.1 °F 53.1 °F 72% 30.14 in 10.0 mi North 18.4 mph - N/A   Mostly Cloudy
9:53 PM 61.0 °F 53.1 °F 75% 30.15 in 10.0 mi NNE 12.7 mph - N/A   Clear
10:53 PM 61.0 °F 52.0 °F 72% 30.15 in 10.0 mi NNE 15.0 mph - N/A   Clear
11:53 PM 61.0 °F 51.1 °F 70% 30.14 in 10.0 mi NE 19.6 mph - N/A   Partly Cloudy